Location: Unspecified
(48.2082°N, 0.0000°E)
Time: 21:17:33
(UTC+00:00)

A-11 Canister half - All Passes

Search period start: 24 June 2019 00:00
Search period end: 04 July 2019 00:00
Orbit: 1525 x 1683 km, 47.3° (Epoch: 24 June)

Date Brightness Start Highest point End Pass type
(mag) Time Alt. Az. Time Alt. Az. Time Alt. Az.
24 Jun - 02:06:51 10° S 02:13:17 21° SE 02:19:36 10° E visible
24 Jun - 04:07:35 10° SW 04:16:42 55° SSE 04:25:40 10° ENE daylight
24 Jun - 06:11:52 10° W 06:21:18 84° S 06:30:38 10° E daylight
24 Jun - 08:16:56 10° W 08:26:13 75° SSW 08:35:32 10° ESE daylight
24 Jun - 10:22:03 10° WNW 10:30:22 38° SW 10:38:45 10° SSE daylight
24 Jun - 12:32:21 10° WSW 12:33:11 10° WSW 12:34:01 10° SW daylight
25 Jun - 01:45:34 10° S 01:51:44 19° SE 01:57:49 10° E visible
25 Jun - 03:46:02 10° SW 03:55:07 53° SSE 04:04:03 10° ENE daylight
25 Jun - 05:50:14 10° WSW 05:59:40 83° S 06:09:00 10° E daylight
25 Jun - 07:55:18 10° W 08:04:37 76° SSW 08:13:55 10° ESE daylight
25 Jun - 10:00:24 10° WNW 10:08:48 40° SW 10:17:17 10° SSE daylight
25 Jun - 12:09:21 10° WSW 12:11:41 11° WSW 12:14:02 10° SW daylight
26 Jun - 01:24:18 10° SSE 01:30:13 18° SE 01:36:02 10° E visible
26 Jun - 03:24:28 10° SW 03:33:33 51° SSE 03:42:26 10° ENE daylight
26 Jun - 05:28:37 10° WSW 05:38:04 83° S 05:47:23 10° E daylight
26 Jun - 07:33:41 10° W 07:43:01 78° SSW 07:52:19 10° ESE daylight
26 Jun - 09:38:45 10° WNW 09:47:15 42° SW 09:55:48 10° SSE daylight
26 Jun - 11:47:02 10° WSW 11:50:11 12° WSW 11:53:21 10° SW daylight
27 Jun - 01:03:05 10° SSE 01:08:42 17° SE 01:14:13 10° E visible
27 Jun - 03:02:55 10° SW 03:11:58 50° SSE 03:20:49 10° ENE visible
27 Jun - 05:06:58 10° WSW 05:16:27 82° S 05:25:47 10° E daylight
27 Jun - 07:12:03 10° W 07:21:25 79° SSW 07:30:43 10° ESE daylight
27 Jun - 09:17:07 10° WNW 09:25:41 43° SW 09:34:17 10° SSE daylight
27 Jun - 11:24:54 10° W 11:28:40 13° SW 11:32:28 10° SSW daylight
28 Jun - 00:41:54 10° SSE 00:47:10 16° SE 00:52:22 10° E visible
28 Jun - 02:41:23 10° SW 02:50:23 48° SE 02:59:11 10° ENE visible
28 Jun - 04:45:20 10° WSW 04:54:50 81° SSE 05:04:09 10° E daylight
28 Jun - 06:50:25 10° W 06:59:48 80° SSW 07:09:06 10° ESE daylight
28 Jun - 08:55:29 10° WNW 09:04:07 45° SW 09:12:48 10° SSE daylight
28 Jun - 11:02:53 10° W 11:07:10 14° SW 11:11:29 10° SSW daylight
29 Jun - 00:20:45 10° SSE 00:25:39 15° SE 00:30:29 10° E visible
29 Jun - 02:19:51 10° SW 02:28:49 46° SE 02:37:34 10° ENE visible
29 Jun - 04:23:42 10° WSW 04:33:13 80° SSE 04:42:32 10° E daylight
29 Jun - 06:28:47 10° W 06:38:11 81° SSW 06:47:29 10° ESE daylight
29 Jun - 08:33:50 10° WNW 08:42:34 47° SW 08:51:17 10° SE daylight
29 Jun - 10:40:56 10° W 10:45:39 15° SW 10:50:25 10° SSW daylight
29 Jun - 23:59:40 10° SSE 00:04:08 14° SE 00:08:32 10° E visible
30 Jun - 01:58:19 10° SSW 02:07:14 45° SE 02:15:56 10° ENE visible
30 Jun - 04:02:04 10° WSW 04:11:36 79° SSE 04:20:56 10° E daylight
30 Jun - 06:07:08 10° W 06:16:34 82° SSW 06:25:53 10° ESE daylight
30 Jun - 08:12:12 10° WNW 08:21:00 48° SW 08:29:46 10° SE daylight
30 Jun - 10:19:02 10° W 10:24:09 16° SW 10:29:18 10° SSW daylight
30 Jun - 23:38:39 10° SSE 23:42:37 13° SE 23:46:31 10° E visible
01 Jul - 01:36:48 10° SSW 01:45:40 43° SE 01:54:18 10° ENE visible
01 Jul - 03:40:26 10° WSW 03:49:59 78° SSE 03:59:18 10° E daylight
01 Jul - 05:45:30 10° W 05:54:57 82° S 06:04:16 10° ESE daylight
01 Jul - 07:50:34 10° WNW 07:59:25 50° SSW 08:08:15 10° SE daylight
01 Jul - 09:57:10 10° W 10:02:38 17° SW 10:08:07 10° SSW daylight
01 Jul - 23:17:45 10° SE 23:21:06 12° ESE 23:24:24 10° ESE visible
02 Jul - 01:15:16 10° SSW 01:24:05 41° SE 01:32:41 10° ENE visible
02 Jul - 03:18:48 10° WSW 03:28:22 77° SSE 03:37:42 10° E visible
02 Jul - 05:23:52 10° W 05:33:20 83° S 05:42:39 10° ESE daylight
02 Jul - 07:28:55 10° WNW 07:37:51 52° SSW 07:46:43 10° SE daylight
02 Jul - 09:35:21 10° W 09:41:07 18° SW 09:46:55 10° SSW daylight
02 Jul - 22:57:02 10° SE 22:59:35 11° ESE 23:02:07 10° ESE visible
03 Jul - 00:53:45 10° SSW 01:02:31 40° SE 01:11:03 10° ENE visible
03 Jul - 02:57:10 10° WSW 03:06:45 76° SSE 03:16:06 10° E visible
03 Jul - 05:02:13 10° W 05:11:43 84° S 05:21:03 10° ESE daylight
03 Jul - 07:07:17 10° WNW 07:16:17 54° SSW 07:25:11 10° SE daylight
03 Jul - 09:13:32 10° W 09:19:36 20° SW 09:25:41 10° S daylight
03 Jul - 22:36:48 10° SE 22:38:04 10° ESE 22:39:20 10° ESE visible
